(147707) = 2005 JH26

Discovered at Kitt Peak on 2005-05-03 by Spacewatch.

Orbit

Orbit type: Main Belt

Note: WebGL enabled browser required.

epoch2024-03-31.0
epoch JD2460400.5
perihelion date2021-11-26.52860
perihelion JD2459545.02860
argument of perihelion (°)202.21758
ascending node (°)99.29319
inclination (°)7.06136
eccentricity0.1429671
perihelion distance (AU)1.8666020
Tisserand w.r.t. Jupiter3.7
ΔV w.r.t. Earth (km/sec)8.7
semimajor axis (AU)2.1779817
mean anomaly (°)262.31795
mean daily motion (°/day)0.30663560
aphelion distance (AU)2.489
period (years)3.21
P-vector [x]0.51982837
P-vector [y]-0.76412673
P-vector [z]-0.38195393
Q-vector [x]0.84561234
Q-vector [y]0.52375875
Q-vector [z]0.10303658
absolute magnitude16.59
phase slope0.15
uncertainty0
referenceMPEC 2024-F07
observations used716
oppositions18
arc length (days)8953
first opposition used1999
last opposition used2024
residual rms (arc-secs)0.80
perturbers coarse indicatorM-v
perturbers precise indicator003Ek
first observation date used1999-09-11.0
last observation date used2024-03-16.0
computer nameMPCLINUX
JD of orbit computation2456819.535123
perihelion JD uncertainty (days)1.3331E-04
argument of perihelion uncertainty (°)6.6762E-05
ascending node uncertainty (°)5.7738E-05
inclination uncertainty (°)6.5439E-06
eccentricity uncertainty 5.4808E-08
perihelion distance uncertainty (AU)1.1484E-07
Minimum Orbit Intersection Distances (in AU)
for orbit epoch: 2460400.5, reference: E2024-GH2
Mercury1.42211
Venus1.13849
Earth0.85278
Mars0.44784
Jupiter2.69497
Saturn6.58542
Uranus16.0284
Neptune27.5479

Observations

738 total observations over interval: 1999 09 11.27013 – 2024 03 16.567083
These data are available for download (format description).

Date (UT) J2000 RA J2000 Dec Magn Location Ref
1999 09 11.27013 23 07 58.22 -19 54 26.6 18.6   704 – Lincoln Laboratory ETS, New Mexico MPS 135381
1999 09 11.28479 23 07 57.37 -19 54 33.2 19.3   704 – Lincoln Laboratory ETS, New Mexico MPS 135381
1999 09 11.29965 23 07 56.48 -19 54 37.4 18.7   704 – Lincoln Laboratory ETS, New Mexico MPS 135381
1999 09 11.31422 23 07 55.71 -19 54 42.9 19.7   704 – Lincoln Laboratory ETS, New Mexico MPS 135381
1999 09 11.32855 23 07 54.83 -19 54 49.5 19.2   704 – Lincoln Laboratory ETS, New Mexico MPS 135381
1999 09 30.18546 22 53 50.67 -20 53 05.0 19.1   704 – Lincoln Laboratory ETS, New Mexico MPS 135381
1999 09 30.20136 22 53 50.04 -20 53 05.0 19.4   704 – Lincoln Laboratory ETS, New Mexico MPS 135381
1999 09 30.23316 22 53 48.93 -20 53 05.3 19.4   704 – Lincoln Laboratory ETS, New Mexico MPS 135381
2000 12 26.50809 09 09 29.58 +20 12 08.0 21.6 V 691 – Steward Observatory, Kitt Peak-Spacewatch MPS 135381
2000 12 26.53069 09 09 28.90 +20 12 15.8 21.2 V 691 – Steward Observatory, Kitt Peak-Spacewatch MPS 135381
2000 12 26.55311 09 09 28.23 +20 12 23.7 21.1 V 691 – Steward Observatory, Kitt Peak-Spacewatch MPS 135381
2002 05 16.49844 19 30 25.82 -18 54 53.7 20.5   608 – Haleakala-AMOS MPS 135381
2002 05 16.50926 19 30 26.18 -18 54 55.0 20.8   608 – Haleakala-AMOS MPS 135381
2002 05 16.51957 19 30 26.53 -18 54 56.5 20.2   608 – Haleakala-AMOS MPS 135381
2002 06 03.42396 19 35 57.44 -19 56 53.7 19.5   644 – Palomar Mountain/NEAT MPS 135381
2002 06 03.43454 19 35 57.41 -19 56 56.9 19.1   644 – Palomar Mountain/NEAT MPS 135381
2002 06 03.44510 19 35 57.36 -19 57 00.1 19.2   644 – Palomar Mountain/NEAT MPS 135381
2002 06 08.37824 19 35 25.13 -20 23 43.0 18.7   704 – Lincoln Laboratory ETS, New Mexico MPS 135381
2002 06 08.39194 19 35 24.96 -20 23 48.5 18.9   704 – Lincoln Laboratory ETS, New Mexico MPS 135381
2002 06 08.41927 19 35 24.49 -20 23 57.4 19.1   704 – Lincoln Laboratory ETS, New Mexico MPS 135381
2002 06 18.32134 19 31 35.57 -21 29 53.7 18.2   704 – Lincoln Laboratory ETS, New Mexico MPS 135381
2002 06 18.33453 19 31 35.05 -21 29 59.5 18.4   704 – Lincoln Laboratory ETS, New Mexico MPS 135381
2002 06 18.34774 19 31 34.63 -21 30 05.7 18.6   704 – Lincoln Laboratory ETS, New Mexico MPS 135382
2002 06 18.36099 19 31 34.14 -21 30 11.4 18.6   704 – Lincoln Laboratory ETS, New Mexico MPS 135382
2002 07 05.31484 19 18 09.10 -23 48 28.4 17.4   704 – Lincoln Laboratory ETS, New Mexico MPS 135382
2002 07 05.32803 19 18 08.30 -23 48 35.0 18.0   704 – Lincoln Laboratory ETS, New Mexico MPS 135382
2002 07 05.34121 19 18 07.50 -23 48 41.4 18.1   704 – Lincoln Laboratory ETS, New Mexico MPS 135382
2002 07 05.35443 19 18 06.65 -23 48 48.2 18.1   704 – Lincoln Laboratory ETS, New Mexico MPS 135382
2002 07 05.36764 19 18 05.87 -23 48 54.7 17.9   704 – Lincoln Laboratory ETS, New Mexico MPS 135382
2004 02 13.14817 06 22 33.53 +25 38 44.8 21.2 R 460 – Area 52 Observatory, Nashville MPS 135382
2004 02 13.17447 06 22 33.05 +25 38 48.1 20.3 R 460 – Area 52 Observatory, Nashville MPS 135382
2005 04 12.74581 16 10 54.20 -10 56 12.8 20.3 R E12 – Siding Spring Survey MPS 135382
2005 04 12.75821 16 10 53.99 -10 56 11.8 19.6 R E12 – Siding Spring Survey MPS 135382
2005 04 12.77065 16 10 53.95 -10 56 09.3 18.5 R E12 – Siding Spring Survey MPS 135382
2005 04 12.78306 16 10 53.71 -10 56 08.6 19.2 R E12 – Siding Spring Survey MPS 135382
2005 05 03.31621 16 00 14.47 -10 15 48.8 19.1 V 691 – Steward Observatory, Kitt Peak-Spacewatch MPS 134083
2005 05 03.33363 16 00 13.57 -10 15 46.2 18.7 V 691 – Steward Observatory, Kitt Peak-Spacewatch MPS 134083
2005 05 03.35118 16 00 12.61 -10 15 45.4 19.0 V 691 – Steward Observatory, Kitt Peak-Spacewatch MPS 134083
2005 05 03.40938 16 00 09.49 -10 15 39.6 19.0   704 – Lincoln Laboratory ETS, New Mexico MPS 134939
2005 05 03.42048 16 00 08.77 -10 15 38.5 19.4   704 – Lincoln Laboratory ETS, New Mexico MPS 134939
2005 05 03.43118 16 00 08.39 -10 15 38.4 19.1   704 – Lincoln Laboratory ETS, New Mexico MPS 134939
2005 05 03.44121 16 00 07.72 -10 15 36.8 19.4   704 – Lincoln Laboratory ETS, New Mexico MPS 134939
2005 05 08.32779 15 55 43.33 -10 08 28.8 18.8   704 – Lincoln Laboratory ETS, New Mexico MPS 134083
2005 05 08.33931 15 55 42.64 -10 08 27.9 18.8   704 – Lincoln Laboratory ETS, New Mexico MPS 134083
2005 05 08.35051 15 55 42.02 -10 08 26.3 19.0   704 – Lincoln Laboratory ETS, New Mexico MPS 134083
2005 05 08.36317 15 55 41.20 -10 08 25.4 19.3   704 – Lincoln Laboratory ETS, New Mexico MPS 134083
2005 05 12.32855 15 51 44.76 -10 04 09.4 18.6   704 – Lincoln Laboratory ETS, New Mexico MPS 134939
2005 05 12.33930 15 51 44.02 -10 04 09.6 19.3   704 – Lincoln Laboratory ETS, New Mexico MPS 134939
2005 05 12.35053 15 51 43.33 -10 04 07.4 19.3 V 691 – Steward Observatory, Kitt Peak-Spacewatch MPS 134939
2005 05 12.35403 15 51 43.12 -10 04 07.7 18.7   704 – Lincoln Laboratory ETS, New Mexico MPS 134939
2005 05 12.36529 15 51 42.37 -10 04 08.1 18.6   704 – Lincoln Laboratory ETS, New Mexico MPS 134939
2005 05 12.36845 15 51 42.14 -10 04 07.0 19.3 V 691 – Steward Observatory, Kitt Peak-Spacewatch MPS 134939
2005 05 12.38644 15 51 40.99 -10 04 05.7 19.3 V 691 – Steward Observatory, Kitt Peak-Spacewatch MPS 134939
2005 05 14.24913 15 49 45.26 -10 02 40.3 18.7 V 691 – Steward Observatory, Kitt Peak-Spacewatch MPS 134939
2005 05 14.26651 15 49 44.11 -10 02 39.5 18.8 V 691 – Steward Observatory, Kitt Peak-Spacewatch MPS 134939
2005 05 14.28387 15 49 42.97 -10 02 38.9 18.9 V 691 – Steward Observatory, Kitt Peak-Spacewatch MPS 134939
2005 05 16.24672 15 47 38.09 -10 01 35.0 18.3   704 – Lincoln Laboratory ETS, New Mexico MPS 134939
2005 05 16.25612 15 47 37.45 -10 01 35.3 18.3   704 – Lincoln Laboratory ETS, New Mexico MPS 134939
2005 05 16.26557 15 47 36.84 -10 01 34.4 18.6   704 – Lincoln Laboratory ETS, New Mexico MPS 134939
2005 05 16.27555 15 47 36.15 -10 01 33.6 18.4   704 – Lincoln Laboratory ETS, New Mexico MPS 134939
2005 05 16.28500 15 47 35.58 -10 01 34.7 18.4   704 – Lincoln Laboratory ETS, New Mexico MPS 134939
2005 05 20.30819 15 43 14.59 -10 00 55.1 17.6 V G96 – Mt. Lemmon Survey MPS 134939
2005 05 20.31486 15 43 14.05 -10 00 54.2 17.6 V G96 – Mt. Lemmon Survey MPS 134939
2005 05 20.32147 15 43 13.72 -10 00 54.2 17.6 V G96 – Mt. Lemmon Survey MPS 134939
2005 05 20.32804 15 43 13.22 -10 00 54.3 18.2 V G96 – Mt. Lemmon Survey MPS 134939
2005 06 02.24968 15 29 40.05 -10 14 34.4 18.6 V 703 – Catalina Sky Survey MPS 135615
2005 06 02.25608 15 29 39.62 -10 14 34.4 18.3 V 703 – Catalina Sky Survey MPS 135615
2005 06 02.26249 15 29 39.26 -10 14 36.5 18.5 V 703 – Catalina Sky Survey MPS 135615
2005 06 02.26890 15 29 38.68 -10 14 40.4 18.2 V 703 – Catalina Sky Survey MPS 135615
2005 06 02.62896 15 29 17.88 -10 15 13.9 19.3 R E12 – Siding Spring Survey MPS 135974
2005 06 02.63790 15 29 17.26 -10 15 14.1 18.5 R E12 – Siding Spring Survey MPS 135974
2005 06 02.64686 15 29 16.75 -10 15 15.5 18.8 R E12 – Siding Spring Survey MPS 135974
2005 06 02.65582 15 29 16.20 -10 15 16.8 18.8 R E12 – Siding Spring Survey MPS 135974
2005 06 04.22661 15 27 47.77 -10 19 00.0 19.1 V 691 – Steward Observatory, Kitt Peak-Spacewatch MPS 135615
2005 06 04.24392 15 27 46.72 -10 19 03.1 18.9 V 691 – Steward Observatory, Kitt Peak-Spacewatch MPS 135615
2005 06 04.26128 15 27 45.73 -10 19 04.9 19.0 V 691 – Steward Observatory, Kitt Peak-Spacewatch MPS 135615
2005 06 04.30330 15 27 43.20 -10 19 10.9 18.3 V 703 – Catalina Sky Survey MPS 135974
2005 06 04.31145 15 27 42.73 -10 19 11.8 18.5 V 703 – Catalina Sky Survey MPS 135974
2005 06 04.31959 15 27 42.30 -10 19 13.1 18.5 V 703 – Catalina Sky Survey MPS 135974
2005 06 04.32768 15 27 41.76 -10 19 14.5 18.5 V 703 – Catalina Sky Survey MPS 135974
2005 06 05.27015 15 26 50.31 -10 21 36.3 18.8   704 – Lincoln Laboratory ETS, New Mexico MPS 135974
2005 06 05.28062 15 26 49.69 -10 21 37.5 19.3   704 – Lincoln Laboratory ETS, New Mexico MPS 135974
2005 06 05.29119 15 26 49.11 -10 21 39.6 19.0   704 – Lincoln Laboratory ETS, New Mexico MPS 135974
2005 06 05.30169 15 26 48.46 -10 21 41.2 18.9   704 – Lincoln Laboratory ETS, New Mexico MPS 135974
2005 06 05.31219 15 26 47.87 -10 21 42.5 19.2   704 – Lincoln Laboratory ETS, New Mexico MPS 135974
